Location: Unspecified
(50.7693°N, 0.0000°E)
Time: 10:56:21
(UTC+00:00)

Transit 2A - Pass Details

Date: 30 June 2019
Orbit: 596 x 962 km, 66.7° (Epoch: 16 August)

Event Time Altitude Azimuth Distance (km) Brightness Sun altitude
Rises 01:02:48 0° 265° (W) 3,641 9.3 -14.9°
Reaches altitude 10° 01:05:53 10° 278° (W) 2,679 8.7 -14.8°
Maximum altitude 01:11:02 26° 333° (NNW) 1,748 8.4 -14.5°
Drops below altitude 10° 01:15:58 10° 28° (NNE) 2,550 10.0 -14.3°
Sets 01:18:49 0° 42° (NE) 3,431 10.7 -14.2°
